7 * 24
多渠道服务支持
STARLINK-34267是美国SpaceX星链星座的成员卫星,于2025年8月4日发射入轨。星链计划旨在打造全球覆盖的低轨互联网星座,计划部署超过四万颗卫星,可为全球偏远地区提供高速互联网接入服务,同时具备军事应用潜力。该卫星秉承星链低成本量产理念,依托一箭多星发射技术入轨,将进一步补全球星链网络,提升星座服务容量与覆盖范围,推动全球卫星互联网商业化落地,巩固SpaceX在低轨卫星领域的领先地位。
美国
(US)
| 数据来源 | 国际轨道数据 |
| 星历时间: | 2026-06-12T23:00:11+0800 1天前 查看轨道信息 |
| 半长轴: | 6840.804km |
| 偏心率: | 0.0001145 |
| 轨道倾角: | 53.160° |
| 近地点辐角 | 103.323° |
| 升交点赤经 | 302.285° |
| 平近点角 | 256.790° |
| 近地点: | 461.883km |
| 远地点: | 463.451km |
| 周期: | 93.847分钟 |
| 每日圈数: | 15.344122 |